Time,TemperatureF,DewpointF,PressureIn,WindDirection,WindDirectionDegrees,WindSpeedMPH,WindSpeedGustMPH,Humidity,HourlyPrecipIn,Conditions,Clouds,dailyrainin,SoftwareType,DateUTC
2013-10-18 00:03:00,63.7,27.2,29.92,NNW,334,0.0,0.0,25,0.00,,,0.00,WeatherCatV1.21B27,2013-10-18 07:03:00,
2013-10-18 00:08:00,63.6,27.1,29.92,NNW,334,0.0,0.0,25,0.00,,,0.00,WeatherCatV1.21B27,2013-10-18 07:08:00,
2013-10-18 00:13:00,63.5,27.0,29.92,NNW,334,0.0,0.0,25,0.00,,,0.00,WeatherCatV1.21B27,2013-10-18 07:13:00,
2013-10-18 00:18:00,63.4,27.0,29.92,NNW,334,0.0,0.0,25,0.00,,,0.00,WeatherCatV1.21B27,2013-10-18 07:18:00,
2013-10-18 00:23:00,63.2,26.8,29.92,NNW,334,0.0,0.0,25,0.00,,,0.00,WeatherCatV1.21B27,2013-10-18 07:23:00,
2013-10-18 00:28:00,63.1,27.7,29.92,NNW,334,0.0,0.0,26,0.00,,,0.00,WeatherCatV1.21B27,2013-10-18 07:28:00,
2013-10-18 00:33:00,63.0,26.6,29.92,NNW,334,0.0,0.0,25,0.00,,,0.00,WeatherCatV1.21B27,2013-10-18 07:33:00,
2013-10-18 00:38:00,62.8,26.5,29.92,NNW,334,0.0,0.0,25,0.00,,,0.00,WeatherCatV1.21B27,2013-10-18 07:38:00,
2013-10-18 00:43:00,62.7,27.3,29.92,NNW,334,0.0,0.0,26,0.00,,,0.00,WeatherCatV1.21B27,2013-10-18 07:43:00,
2013-10-18 00:48:00,62.4,27.1,29.92,NNW,334,0.0,1.0,26,0.00,,,0.00,WeatherCatV1.21B27,2013-10-18 07:48:00,
2013-10-18 00:53:00,62.3,27.0,29.92,NNW,334,0.0,0.0,26,0.00,,,0.00,WeatherCatV1.21B27,2013-10-18 07:53:00,
2013-10-18 00:58:00,62.3,27.9,29.92,NNW,334,0.0,0.0,27,0.00,,,0.00,WeatherCatV1.21B27,2013-10-18 07:58:00,
2013-10-18 01:03:00,62.2,27.8,29.92,NNW,334,0.0,0.0,27,0.00,,,0.00,WeatherCatV1.21B27,2013-10-18 08:03:00,
2013-10-18 01:08:00,62.2,27.8,29.92,NNW,334,0.0,0.0,27,0.00,,,0.00,WeatherCatV1.21B27,2013-10-18 08:08:00,
2013-10-18 01:13:00,62.2,27.8,29.92,NNW,334,0.0,0.0,27,0.00,,,0.00,WeatherCatV1.21B27,2013-10-18 08:13:00,
2013-10-18 01:18:00,62.2,27.8,29.92,NNW,334,0.0,0.0,27,0.00,,,0.00,WeatherCatV1.21B27,2013-10-18 08:18:00,
2013-10-18 01:23:00,62.2,27.8,29.92,NNW,334,0.0,0.0,27,0.00,,,0.00,WeatherCatV1.21B27,2013-10-18 08:23:00,
2013-10-18 01:28:00,62.2,27.8,29.92,NNW,334,0.0,0.0,27,0.00,,,0.00,WeatherCatV1.21B27,2013-10-18 08:28:00,
2013-10-18 01:33:00,62.2,27.8,29.92,NNW,334,0.0,0.0,27,0.00,,,0.00,WeatherCatV1.21B27,2013-10-18 08:33:00,
2013-10-18 01:38:00,62.3,27.9,29.92,NNW,334,0.0,0.0,27,0.00,,,0.00,WeatherCatV1.21B27,2013-10-18 08:38:00,
2013-10-18 01:43:00,62.3,27.9,29.92,NNW,334,0.0,0.0,27,0.00,,,0.00,WeatherCatV1.21B27,2013-10-18 08:43:00,
2013-10-18 01:48:00,62.3,27.9,29.92,NNW,334,0.0,0.0,27,0.00,,,0.00,WeatherCatV1.21B27,2013-10-18 08:48:00,
2013-10-18 01:53:00,62.2,26.9,29.92,NNW,334,0.0,0.0,26,0.00,,,0.00,WeatherCatV1.21B27,2013-10-18 08:53:00,
2013-10-18 01:58:00,62.2,27.8,29.92,NNW,334,0.0,0.0,27,0.00,,,0.00,WeatherCatV1.21B27,2013-10-18 08:58:00,
2013-10-18 02:03:00,62.1,27.7,29.92,NNW,334,0.0,0.0,27,0.00,,,0.00,WeatherCatV1.21B27,2013-10-18 09:03:00,
2013-10-18 02:08:00,62.1,26.8,29.92,NNW,334,0.0,0.0,26,0.00,,,0.00,WeatherCatV1.21B27,2013-10-18 09:08:00,
2013-10-18 02:13:00,62.0,26.7,29.92,NNW,334,0.0,0.0,26,0.00,,,0.00,WeatherCatV1.21B27,2013-10-18 09:13:00,
2013-10-18 02:18:00,62.0,26.7,29.92,NNW,334,0.0,0.0,26,0.00,,,0.00,WeatherCatV1.21B27,2013-10-18 09:18:00,
2013-10-18 02:23:00,62.0,26.7,29.92,NNW,334,0.0,0.0,26,0.00,,,0.00,WeatherCatV1.21B27,2013-10-18 09:23:00,
2013-10-18 02:28:00,62.1,26.8,29.92,NNW,334,0.0,0.0,26,0.00,,,0.00,WeatherCatV1.21B27,2013-10-18 09:28:00,
2013-10-18 02:33:00,62.1,27.7,29.92,NNW,334,0.0,0.0,27,0.00,,,0.00,WeatherCatV1.21B27,2013-10-18 09:33:00,
2013-10-18 02:38:00,62.2,27.8,29.92,NNW,334,0.0,0.0,27,0.00,,,0.00,WeatherCatV1.21B27,2013-10-18 09:38:00,
2013-10-18 02:43:00,62.2,27.8,29.92,NNW,334,0.0,0.0,27,0.00,,,0.00,WeatherCatV1.21B27,2013-10-18 09:43:00,
2013-10-18 02:48:00,62.3,27.9,29.92,NNW,334,0.0,1.0,27,0.00,,,0.00,WeatherCatV1.21B27,2013-10-18 09:48:00,
2013-10-18 02:53:00,62.5,27.1,29.92,NNW,334,0.0,2.0,26,0.00,,,0.00,WeatherCatV1.21B27,2013-10-18 09:53:00,
2013-10-18 02:58:00,62.8,27.4,29.92,NNW,333,0.0,1.0,26,0.00,,,0.00,WeatherCatV1.21B27,2013-10-18 09:58:00,
2013-10-18 03:03:00,62.9,27.5,29.92,NNW,334,0.0,1.0,26,0.00,,,0.00,WeatherCatV1.21B27,2013-10-18 10:03:00,
2013-10-18 03:08:00,63.1,27.7,29.92,NNW,334,0.0,0.0,26,0.00,,,0.00,WeatherCatV1.21B27,2013-10-18 10:08:00,
2013-10-18 03:13:00,63.2,27.8,29.92,NNW,334,0.0,0.0,26,0.00,,,0.00,WeatherCatV1.21B27,2013-10-18 10:13:00,
2013-10-18 03:18:00,63.2,27.8,29.92,NNW,334,0.0,0.0,26,0.00,,,0.00,WeatherCatV1.21B27,2013-10-18 10:18:00,
2013-10-18 03:23:00,63.2,28.7,29.92,NNW,334,0.0,1.0,27,0.00,,,0.00,WeatherCatV1.21B27,2013-10-18 10:23:00,
2013-10-18 03:28:00,63.2,28.7,29.92,NNW,334,0.0,2.0,27,0.00,,,0.00,WeatherCatV1.21B27,2013-10-18 10:28:00,
2013-10-18 03:33:00,63.2,28.7,29.92,NNW,334,0.0,0.0,27,0.00,,,0.00,WeatherCatV1.21B27,2013-10-18 10:33:00,
2013-10-18 03:38:00,63.2,27.8,29.92,NNW,333,0.0,1.0,26,0.00,,,0.00,WeatherCatV1.21B27,2013-10-18 10:38:00,
2013-10-18 03:43:00,63.3,27.8,29.92,NNW,333,0.0,1.0,26,0.00,,,0.00,WeatherCatV1.21B27,2013-10-18 10:43:00,
2013-10-18 03:48:00,63.4,27.9,29.91,NNW,333,0.0,1.0,26,0.00,,,0.00,WeatherCatV1.21B27,2013-10-18 10:48:00,
2013-10-18 03:53:00,63.4,27.9,29.91,NNW,333,0.0,0.0,26,0.00,,,0.00,WeatherCatV1.21B27,2013-10-18 10:53:00,
2013-10-18 03:58:00,63.4,27.9,29.91,NNW,333,0.0,0.0,26,0.00,,,0.00,WeatherCatV1.21B27,2013-10-18 10:58:00,
2013-10-18 04:03:00,63.4,28.8,29.91,NNW,333,0.0,1.0,27,0.00,,,0.00,WeatherCatV1.21B27,2013-10-18 11:03:00,
2013-10-18 04:08:00,63.4,28.8,29.91,NNW,332,0.0,1.0,27,0.00,,,0.00,WeatherCatV1.21B27,2013-10-18 11:08:00,
2013-10-18 04:13:00,63.5,28.0,29.91,NNW,332,0.0,1.0,26,0.00,,,0.00,WeatherCatV1.21B27,2013-10-18 11:13:00,
2013-10-18 04:18:00,63.8,28.3,29.91,NNW,337,0.0,1.0,26,0.00,,,0.00,WeatherCatV1.21B27,2013-10-18 11:18:00,
2013-10-18 04:23:00,63.9,28.3,29.91,NNW,337,1.0,1.0,26,0.00,,,0.00,WeatherCatV1.21B27,2013-10-18 11:23:00,
2013-10-18 04:28:00,64.1,28.5,29.91,NNW,334,2.0,3.0,26,0.00,,,0.00,WeatherCatV1.21B27,2013-10-18 11:28:00,
2013-10-18 04:33:00,64.2,28.6,29.91,NNW,331,2.0,2.0,26,0.00,,,0.00,WeatherCatV1.21B27,2013-10-18 11:33:00,
2013-10-18 04:38:00,64.4,28.8,29.91,NNW,336,2.0,3.0,26,0.00,,,0.00,WeatherCatV1.21B27,2013-10-18 11:38:00,
2013-10-18 04:43:00,64.5,28.9,29.91,NNW,334,2.0,3.0,26,0.00,,,0.00,WeatherCatV1.21B27,2013-10-18 11:43:00,
2013-10-18 04:48:00,64.7,28.1,29.90,NNW,331,2.0,3.0,25,0.00,,,0.00,WeatherCatV1.21B27,2013-10-18 11:48:00,
2013-10-18 04:53:00,64.9,28.2,29.90,NNW,331,0.0,0.0,25,0.00,,,0.00,WeatherCatV1.21B27,2013-10-18 11:53:00,
2013-10-18 04:58:00,64.9,28.2,29.90,NNW,331,0.0,0.0,25,0.00,,,0.00,WeatherCatV1.21B27,2013-10-18 11:58:00,
2013-10-18 05:03:00,64.9,28.2,29.90,NNW,331,0.0,0.0,25,0.00,,,0.00,WeatherCatV1.21B27,2013-10-18 12:03:00,
2013-10-18 05:08:00,64.7,28.1,29.90,NNW,331,1.0,1.0,25,0.00,,,0.00,WeatherCatV1.21B27,2013-10-18 12:08:00,
2013-10-18 05:13:00,64.3,27.7,29.90,NNW,331,1.0,2.0,25,0.00,,,0.00,WeatherCatV1.21B27,2013-10-18 12:13:00,
2013-10-18 05:18:00,64.2,27.6,29.91,NNW,332,1.0,2.0,25,0.00,,,0.00,WeatherCatV1.21B27,2013-10-18 12:18:00,
2013-10-18 05:23:00,64.1,26.6,29.91,NNW,332,0.0,0.0,24,0.00,,,0.00,WeatherCatV1.21B27,2013-10-18 12:23:00,
2013-10-18 05:28:00,64.2,27.6,29.91,NNW,332,0.0,0.0,25,0.00,,,0.00,WeatherCatV1.21B27,2013-10-18 12:28:00,
2013-10-18 05:33:00,64.1,26.6,29.91,NNW,332,0.0,0.0,24,0.00,,,0.00,WeatherCatV1.21B27,2013-10-18 12:33:00,
2013-10-18 05:38:00,64.1,26.6,29.91,NNW,332,0.0,0.0,24,0.00,,,0.00,WeatherCatV1.21B27,2013-10-18 12:38:00,
2013-10-18 05:43:00,63.9,26.4,29.91,NNW,332,0.0,1.0,24,0.00,,,0.00,WeatherCatV1.21B27,2013-10-18 12:43:00,
2013-10-18 05:48:00,63.8,26.3,29.91,NNW,332,0.0,1.0,24,0.00,,,0.00,WeatherCatV1.21B27,2013-10-18 12:48:00,
2013-10-18 05:53:00,63.6,26.1,29.91,NNW,332,0.0,0.0,24,0.00,,,0.00,WeatherCatV1.21B27,2013-10-18 12:53:00,
2013-10-18 05:58:00,63.5,26.1,29.91,NNW,332,0.0,0.0,24,0.00,,,0.00,WeatherCatV1.21B27,2013-10-18 12:58:00,
2013-10-18 06:03:00,63.4,26.0,29.92,NNW,332,0.0,2.0,24,0.00,,,0.00,WeatherCatV1.21B27,2013-10-18 13:03:00,
2013-10-18 06:08:00,63.4,26.0,29.92,NNW,332,2.0,2.0,24,0.00,,,0.00,WeatherCatV1.21B27,2013-10-18 13:08:00,
2013-10-18 06:13:00,63.6,26.1,29.92,NNW,335,1.0,2.0,24,0.00,,,0.00,WeatherCatV1.21B27,2013-10-18 13:13:00,
2013-10-18 06:18:00,63.8,26.3,29.92,NNW,333,2.0,3.0,24,0.00,,,0.00,WeatherCatV1.21B27,2013-10-18 13:18:00,
2013-10-18 06:23:00,63.9,26.4,29.92,NNW,332,0.0,2.0,24,0.00,,,0.00,WeatherCatV1.21B27,2013-10-18 13:23:00,
2013-10-18 06:28:00,64.0,26.5,29.92,NNW,332,0.0,0.0,24,0.00,,,0.00,WeatherCatV1.21B27,2013-10-18 13:28:00,
2013-10-18 06:33:00,64.1,26.6,29.92,NNW,332,0.0,0.0,24,0.00,,,0.00,WeatherCatV1.21B27,2013-10-18 13:33:00,
2013-10-18 06:38:00,64.0,26.5,29.92,NNW,332,0.0,0.0,24,0.00,,,0.00,WeatherCatV1.21B27,2013-10-18 13:38:00,
2013-10-18 06:43:00,63.9,26.4,29.92,NNW,332,0.0,1.0,24,0.00,,,0.00,WeatherCatV1.21B27,2013-10-18 13:43:00,
2013-10-18 06:48:00,63.8,26.3,29.92,NNW,332,0.0,1.0,24,0.00,,,0.00,WeatherCatV1.21B27,2013-10-18 13:48:00,
2013-10-18 06:53:00,63.7,26.2,29.92,NNW,333,0.0,2.0,24,0.00,,,0.00,WeatherCatV1.21B27,2013-10-18 13:53:00,
2013-10-18 06:58:00,63.6,26.1,29.92,NNW,336,2.0,3.0,24,0.00,,,0.00,WeatherCatV1.21B27,2013-10-18 13:58:00,
2013-10-18 07:03:00,64.0,25.5,29.92,NNW,335,3.0,4.0,23,0.00,,,0.00,WeatherCatV1.21B27,2013-10-18 14:03:00,
2013-10-18 07:08:00,64.6,26.0,29.92,NNW,333,1.0,2.0,23,0.00,,,0.00,WeatherCatV1.21B27,2013-10-18 14:08:00,
2013-10-18 07:13:00,64.8,25.1,29.92,NNW,334,2.0,3.0,22,0.00,,,0.00,WeatherCatV1.21B27,2013-10-18 14:13:00,
2013-10-18 07:18:00,64.7,26.0,29.92,NNW,334,1.0,2.0,23,0.00,,,0.00,WeatherCatV1.21B27,2013-10-18 14:18:00,
2013-10-18 07:23:00,64.7,26.0,29.92,NNW,334,0.0,1.0,23,0.00,,,0.00,WeatherCatV1.21B27,2013-10-18 14:23:00,
2013-10-18 07:28:00,64.7,26.0,29.92,NNW,334,0.0,1.0,23,0.00,,,0.00,WeatherCatV1.21B27,2013-10-18 14:28:00,
2013-10-18 07:33:00,64.7,25.0,29.92,NNW,334,0.0,0.0,22,0.00,,,0.00,WeatherCatV1.21B27,2013-10-18 14:33:00,
2013-10-18 07:38:00,64.7,25.0,29.92,NNW,335,0.0,1.0,22,0.00,,,0.00,WeatherCatV1.21B27,2013-10-18 14:38:00,
2013-10-18 07:43:00,64.8,25.1,29.92,NNW,334,0.0,0.0,22,0.00,,,0.00,WeatherCatV1.21B27,2013-10-18 14:43:00,
2013-10-18 07:48:00,64.8,25.1,29.93,NNW,334,0.0,0.0,22,0.00,,,0.00,WeatherCatV1.21B27,2013-10-18 14:48:00,
2013-10-18 07:53:00,64.9,25.1,29.93,NNW,334,0.0,0.0,22,0.00,,,0.00,WeatherCatV1.21B27,2013-10-18 14:53:00,
2013-10-18 07:58:00,65.0,25.2,29.93,NNW,334,0.0,0.0,22,0.00,,,0.00,WeatherCatV1.21B27,2013-10-18 14:58:00,
2013-10-18 08:03:00,65.2,25.4,29.93,NNW,334,0.0,0.0,22,0.00,,,0.00,WeatherCatV1.21B27,2013-10-18 15:03:00,
2013-10-18 08:08:00,65.3,25.5,29.93,NNW,334,0.0,0.0,22,0.00,,,0.00,WeatherCatV1.21B27,2013-10-18 15:08:00,
2013-10-18 08:13:00,65.4,26.6,29.93,NNW,334,0.0,0.0,23,0.00,,,0.00,WeatherCatV1.21B27,2013-10-18 15:13:00,
2013-10-18 08:18:00,65.5,26.7,29.93,NNW,335,0.0,0.0,23,0.00,,,0.00,WeatherCatV1.21B27,2013-10-18 15:18:00,
2013-10-18 08:23:00,65.5,28.8,29.93,NNW,335,0.0,0.0,25,0.00,,,0.00,WeatherCatV1.21B27,2013-10-18 15:23:00,
2013-10-18 08:28:00,65.6,26.8,29.93,NNW,334,0.0,0.0,23,0.00,,,0.00,WeatherCatV1.21B27,2013-10-18 15:28:00,
2013-10-18 08:33:00,65.7,27.9,29.94,NNW,335,0.0,0.0,24,0.00,,,0.00,WeatherCatV1.21B27,2013-10-18 15:33:00,
2013-10-18 08:38:00,66.0,27.1,29.94,NNW,334,0.0,0.0,23,0.00,,,0.00,WeatherCatV1.21B27,2013-10-18 15:38:00,
2013-10-18 08:43:00,66.3,27.4,29.94,NNW,334,0.0,0.0,23,0.00,,,0.00,WeatherCatV1.21B27,2013-10-18 15:43:00,
2013-10-18 08:48:00,66.5,27.6,29.95,NNW,334,0.0,0.0,23,0.00,,,0.00,WeatherCatV1.21B27,2013-10-18 15:48:00,
2013-10-18 08:53:00,66.8,27.8,29.95,NNW,334,0.0,0.0,23,0.00,,,0.00,WeatherCatV1.21B27,2013-10-18 15:53:00,
2013-10-18 08:58:00,67.4,28.3,29.95,NNW,334,0.0,0.0,23,0.00,,,0.00,WeatherCatV1.21B27,2013-10-18 15:58:00,
2013-10-18 09:03:00,67.9,27.6,29.95,NNW,334,0.0,0.0,22,0.00,,,0.00,WeatherCatV1.21B27,2013-10-18 16:03:00,
2013-10-18 09:08:00,68.4,28.1,29.95,NNW,334,0.0,1.0,22,0.00,,,0.00,WeatherCatV1.21B27,2013-10-18 16:08:00,
2013-10-18 09:13:00,68.8,30.5,29.95,NNW,335,0.0,0.0,24,0.00,,,0.00,WeatherCatV1.21B27,2013-10-18 16:13:00,
2013-10-18 09:18:00,69.1,31.8,29.95,NNW,334,0.0,0.0,25,0.00,,,0.00,WeatherCatV1.21B27,2013-10-18 16:18:00,
2013-10-18 09:23:00,69.4,33.0,29.95,NNW,334,0.0,0.0,26,0.00,,,0.00,WeatherCatV1.21B27,2013-10-18 16:23:00,
2013-10-18 09:28:00,70.1,32.6,29.95,NNW,334,0.0,0.0,25,0.00,,,0.00,WeatherCatV1.21B27,2013-10-18 16:28:00,
2013-10-18 09:33:00,71.2,31.5,29.95,ESE,121,1.0,1.0,23,0.00,,,0.00,WeatherCatV1.21B27,2013-10-18 16:33:00,
2013-10-18 09:38:00,72.2,31.2,29.95,SE,132,0.0,1.0,22,0.00,,,0.00,WeatherCatV1.21B27,2013-10-18 16:38:00,
2013-10-18 09:43:00,73.2,33.2,29.95,SE,132,0.0,1.0,23,0.00,,,0.00,WeatherCatV1.21B27,2013-10-18 16:43:00,
2013-10-18 09:48:00,74.0,32.7,29.96,SE,132,0.0,1.0,22,0.00,,,0.00,WeatherCatV1.21B27,2013-10-18 16:48:00,
2013-10-18 09:53:00,75.0,29.9,29.96,SE,132,0.0,1.0,19,0.00,,,0.00,WeatherCatV1.21B27,2013-10-18 16:53:00,
2013-10-18 09:58:00,76.1,35.6,29.96,SE,132,0.0,0.0,23,0.00,,,0.00,WeatherCatV1.21B27,2013-10-18 16:58:00,
2013-10-18 10:03:00,76.9,36.3,29.96,SE,132,0.0,1.0,23,0.00,,,0.00,WeatherCatV1.21B27,2013-10-18 17:03:00,
2013-10-18 10:08:00,77.3,34.3,29.96,SSE,154,0.0,0.0,21,0.00,,,0.00,WeatherCatV1.21B27,2013-10-18 17:08:00,
2013-10-18 10:13:00,77.2,34.2,29.96,SSE,147,0.0,1.0,21,0.00,,,0.00,WeatherCatV1.21B27,2013-10-18 17:13:00,
2013-10-18 10:18:00,76.9,34.0,29.96,SE,142,0.0,1.0,21,0.00,,,0.00,WeatherCatV1.21B27,2013-10-18 17:18:00,
2013-10-18 10:23:00,76.6,32.5,29.96,SE,142,0.0,1.0,20,0.00,,,0.00,WeatherCatV1.21B27,2013-10-18 17:23:00,
2013-10-18 10:28:00,76.7,36.1,29.96,SE,142,1.0,1.0,23,0.00,,,0.00,WeatherCatV1.21B27,2013-10-18 17:28:00,
2013-10-18 10:33:00,76.9,35.1,29.96,SE,144,0.0,2.0,22,0.00,,,0.00,WeatherCatV1.21B27,2013-10-18 17:33:00,
2013-10-18 10:35:00,76.9,35.1,29.96,SSE,154,1.0,2.0,22,0.00,,,0.00,WeatherCatV1.21B27,2013-10-18 17:35:00,
2013-10-18 10:40:00,76.9,32.8,29.96,SSE,149,0.0,2.0,20,0.00,,,0.00,WeatherCatV1.21B27,2013-10-18 17:40:00,
2013-10-18 10:45:00,77.1,31.6,29.96,SE,141,0.0,1.0,19,0.00,,,0.00,WeatherCatV1.21B27,2013-10-18 17:45:00,
2013-10-18 10:50:00,77.6,35.7,29.96,SE,136,0.0,0.0,22,0.00,,,0.00,WeatherCatV1.21B27,2013-10-18 17:50:00,
2013-10-18 10:55:00,78.4,35.2,29.96,SE,136,1.0,2.0,21,0.00,,,0.00,WeatherCatV1.21B27,2013-10-18 17:55:00,
2013-10-18 11:00:00,78.7,31.6,29.96,SE,145,0.0,2.0,18,0.00,,,0.00,WeatherCatV1.21B27,2013-10-18 18:00:00,
2013-10-18 11:05:00,78.9,33.1,29.96,SE,142,2.0,2.0,19,0.00,,,0.00,WeatherCatV1.21B27,2013-10-18 18:05:00,
2013-10-18 11:10:00,79.2,33.4,29.96,SE,144,1.0,3.0,19,0.00,,,0.00,WeatherCatV1.21B27,2013-10-18 18:10:00,
2013-10-18 11:15:00,79.5,36.1,29.96,SE,144,0.0,0.0,21,0.00,,,0.00,WeatherCatV1.21B27,2013-10-18 18:15:00,
2013-10-18 11:20:00,79.6,35.0,29.96,SSE,148,0.0,2.0,20,0.00,,,0.00,WeatherCatV1.21B27,2013-10-18 18:20:00,
2013-10-18 11:25:00,79.7,36.3,29.96,SSE,148,0.0,1.0,21,0.00,,,0.00,WeatherCatV1.21B27,2013-10-18 18:25:00,
2013-10-18 11:30:00,79.7,33.8,29.96,SE,138,1.0,3.0,19,0.00,,,0.00,WeatherCatV1.21B27,2013-10-18 18:30:00,
2013-10-18 11:35:00,79.7,33.8,29.96,NE,37,0.0,2.0,19,0.00,,,0.00,WeatherCatV1.21B27,2013-10-18 18:35:00,
2013-10-18 11:40:00,79.5,33.6,29.96,SE,128,2.0,2.0,19,0.00,,,0.00,WeatherCatV1.21B27,2013-10-18 18:40:00,
2013-10-18 11:45:00,79.7,31.0,29.96,SE,140,1.0,1.0,17,0.00,,,0.00,WeatherCatV1.21B27,2013-10-18 18:45:00,
2013-10-18 11:50:00,79.8,29.6,29.96,ESE,120,0.0,1.0,16,0.00,,,0.00,WeatherCatV1.21B27,2013-10-18 18:50:00,
2013-10-18 11:55:00,80.0,29.8,29.96,SE,125,0.0,3.0,16,0.00,,,0.00,WeatherCatV1.21B27,2013-10-18 18:55:00,
2013-10-18 12:00:00,80.1,29.9,29.96,SE,124,1.0,1.0,16,0.00,,,0.00,WeatherCatV1.21B27,2013-10-18 19:00:00,
2013-10-18 12:05:00,80.4,31.6,29.96,East,93,0.0,3.0,17,0.00,,,0.00,WeatherCatV1.21B27,2013-10-18 19:05:00,
2013-10-18 12:10:00,80.6,33.2,29.96,SE,133,3.0,3.0,18,0.00,,,0.00,WeatherCatV1.21B27,2013-10-18 19:10:00,
2013-10-18 12:15:00,80.8,31.9,29.96,NNE,13,2.0,2.0,17,0.00,,,0.00,WeatherCatV1.21B27,2013-10-18 19:15:00,
2013-10-18 12:20:00,80.6,31.7,29.96,North,349,0.0,1.0,17,0.00,,,0.00,WeatherCatV1.21B27,2013-10-18 19:20:00,
2013-10-18 12:25:00,81.0,34.8,29.96,SE,144,1.0,2.0,19,0.00,,,0.00,WeatherCatV1.21B27,2013-10-18 19:25:00,
2013-10-18 12:30:00,81.1,33.6,29.96,SSE,165,0.0,2.0,18,0.00,,,0.00,WeatherCatV1.21B27,2013-10-18 19:30:00,
2013-10-18 12:35:00,80.7,33.2,29.96,WSW,242,1.0,1.0,18,0.00,,,0.00,WeatherCatV1.21B27,2013-10-18 19:35:00,
2013-10-18 12:40:00,80.8,33.3,29.96,ESE,109,0.0,2.0,18,0.00,,,0.00,WeatherCatV1.21B27,2013-10-18 19:40:00,
2013-10-18 12:45:00,81.2,35.0,29.95,SE,140,1.0,2.0,19,0.00,,,0.00,WeatherCatV1.21B27,2013-10-18 19:45:00,
2013-10-18 12:50:00,81.9,35.6,29.95,SSE,152,0.0,2.0,19,0.00,,,0.00,WeatherCatV1.21B27,2013-10-18 19:50:00,
2013-10-18 12:55:00,82.4,34.6,29.95,ESE,108,0.0,1.0,18,0.00,,,0.00,WeatherCatV1.21B27,2013-10-18 19:55:00,
2013-10-18 13:00:00,82.4,34.6,29.95,SE,129,0.0,1.0,18,0.00,,,0.00,WeatherCatV1.21B27,2013-10-18 20:00:00,
2013-10-18 13:05:00,82.4,34.6,29.95,SE,129,0.0,1.0,18,0.00,,,0.00,WeatherCatV1.21B27,2013-10-18 20:05:00,
2013-10-18 13:10:00,82.4,36.0,29.95,SE,128,0.0,0.0,19,0.00,,,0.00,WeatherCatV1.21B27,2013-10-18 20:10:00,
2013-10-18 13:15:00,82.6,36.1,29.95,East,88,0.0,0.0,19,0.00,,,0.00,WeatherCatV1.21B27,2013-10-18 20:15:00,
2013-10-18 13:20:00,82.7,36.2,29.95,SSE,154,0.0,3.0,19,0.00,,,0.00,WeatherCatV1.21B27,2013-10-18 20:20:00,
2013-10-18 13:25:00,82.1,34.4,29.95,SE,142,0.0,2.0,18,0.00,,,0.00,WeatherCatV1.21B27,2013-10-18 20:25:00,
2013-10-18 13:30:00,81.7,36.7,29.94,SE,142,0.0,1.0,20,0.00,,,0.00,WeatherCatV1.21B27,2013-10-18 20:30:00,
2013-10-18 13:35:00,81.5,35.2,29.94,ESE,109,1.0,2.0,19,0.00,,,0.00,WeatherCatV1.21B27,2013-10-18 20:35:00,
2013-10-18 13:40:00,81.0,34.8,29.94,SE,131,0.0,0.0,19,0.00,,,0.00,WeatherCatV1.21B27,2013-10-18 20:40:00,
2013-10-18 13:45:00,81.0,34.8,29.93,SE,138,0.0,1.0,19,0.00,,,0.00,WeatherCatV1.21B27,2013-10-18 20:45:00,
2013-10-18 13:50:00,80.5,35.7,29.93,SE,135,0.0,1.0,20,0.00,,,0.00,WeatherCatV1.21B27,2013-10-18 20:50:00,
2013-10-18 13:55:00,80.7,35.9,29.93,SE,137,0.0,0.0,20,0.00,,,0.00,WeatherCatV1.21B27,2013-10-18 20:55:00,
2013-10-18 14:00:00,80.8,36.0,29.93,SE,146,2.0,2.0,20,0.00,,,0.00,WeatherCatV1.21B27,2013-10-18 21:00:00,
2013-10-18 14:05:00,80.8,34.7,29.93,SE,138,1.0,1.0,19,0.00,,,0.00,WeatherCatV1.21B27,2013-10-18 21:05:00,
2013-10-18 14:10:00,80.5,34.4,29.93,ESE,120,0.0,0.0,19,0.00,,,0.00,WeatherCatV1.21B27,2013-10-18 21:10:00,
2013-10-18 14:15:00,80.2,34.2,29.93,ENE,59,2.0,4.0,19,0.00,,,0.00,WeatherCatV1.21B27,2013-10-18 21:15:00,
2013-10-18 14:20:00,79.7,33.8,29.93,East,89,0.0,2.0,19,0.00,,,0.00,WeatherCatV1.21B27,2013-10-18 21:20:00,
2013-10-18 14:25:00,79.2,33.4,29.93,SE,127,0.0,0.0,19,0.00,,,0.00,WeatherCatV1.21B27,2013-10-18 21:25:00,
2013-10-18 14:30:00,79.0,34.5,29.93,SE,127,0.0,0.0,20,0.00,,,0.00,WeatherCatV1.21B27,2013-10-18 21:30:00,
2013-10-18 14:35:00,79.0,34.5,29.93,ESE,115,0.0,3.0,20,0.00,,,0.00,WeatherCatV1.21B27,2013-10-18 21:35:00,
2013-10-18 14:40:00,78.7,34.2,29.93,SE,140,1.0,1.0,20,0.00,,,0.00,WeatherCatV1.21B27,2013-10-18 21:40:00,
2013-10-18 14:45:00,78.3,33.9,29.93,ESE,102,1.0,1.0,20,0.00,,,0.00,WeatherCatV1.21B27,2013-10-18 21:45:00,
2013-10-18 14:50:00,78.3,35.1,29.93,SE,124,0.0,2.0,21,0.00,,,0.00,WeatherCatV1.21B27,2013-10-18 21:50:00,
2013-10-18 14:55:00,78.2,35.0,29.93,SE,138,0.0,1.0,21,0.00,,,0.00,WeatherCatV1.21B27,2013-10-18 21:55:00,
2013-10-18 15:00:00,78.0,33.7,29.93,SE,134,0.0,2.0,20,0.00,,,0.00,WeatherCatV1.21B27,2013-10-18 22:00:00,
2013-10-18 15:05:00,77.6,33.3,29.93,ENE,59,0.0,2.0,20,0.00,,,0.00,WeatherCatV1.21B27,2013-10-18 22:05:00,
2013-10-18 15:10:00,77.5,34.5,29.93,SE,133,0.0,1.0,21,0.00,,,0.00,WeatherCatV1.21B27,2013-10-18 22:10:00,
2013-10-18 15:15:00,77.5,34.5,29.93,ESE,102,0.0,1.0,21,0.00,,,0.00,WeatherCatV1.21B27,2013-10-18 22:15:00,
2013-10-18 15:20:00,77.6,33.3,29.93,SE,145,1.0,3.0,20,0.00,,,0.00,WeatherCatV1.21B27,2013-10-18 22:20:00,
2013-10-18 15:25:00,77.3,34.3,29.93,SE,137,1.0,2.0,21,0.00,,,0.00,WeatherCatV1.21B27,2013-10-18 22:25:00,
2013-10-18 15:30:00,77.3,34.3,29.93,SSE,151,0.0,2.0,21,0.00,,,0.00,WeatherCatV1.21B27,2013-10-18 22:30:00,
2013-10-18 15:35:00,77.1,32.9,29.93,SE,125,0.0,0.0,20,0.00,,,0.00,WeatherCatV1.21B27,2013-10-18 22:35:00,
2013-10-18 15:40:00,77.0,34.1,29.93,SSE,149,0.0,3.0,21,0.00,,,0.00,WeatherCatV1.21B27,2013-10-18 22:40:00,
2013-10-18 15:45:00,77.0,34.1,29.93,SE,143,0.0,1.0,21,0.00,,,0.00,WeatherCatV1.21B27,2013-10-18 22:45:00,
2013-10-18 15:50:00,77.0,34.1,29.93,SE,144,0.0,2.0,21,0.00,,,0.00,WeatherCatV1.21B27,2013-10-18 22:50:00,
2013-10-18 15:55:00,77.0,34.1,29.93,SE,142,0.0,1.0,21,0.00,,,0.00,WeatherCatV1.21B27,2013-10-18 22:55:00,
2013-10-18 16:00:00,76.9,34.0,29.93,SE,144,0.0,0.0,21,0.00,,,0.00,WeatherCatV1.21B27,2013-10-18 23:00:00,
2013-10-18 16:05:00,76.9,34.0,29.93,SE,136,0.0,0.0,21,0.00,,,0.00,WeatherCatV1.21B27,2013-10-18 23:05:00,
2013-10-18 16:10:00,76.7,33.8,29.93,East,100,0.0,1.0,21,0.00,,,0.00,WeatherCatV1.21B27,2013-10-18 23:10:00,
2013-10-18 16:15:00,76.7,33.8,29.93,NNW,343,1.0,3.0,21,0.00,,,0.00,WeatherCatV1.21B27,2013-10-18 23:15:00,
2013-10-18 16:20:00,76.5,33.7,29.93,SE,130,0.0,1.0,21,0.00,,,0.00,WeatherCatV1.21B27,2013-10-18 23:20:00,
2013-10-18 16:25:00,76.3,33.5,29.93,SE,130,0.0,0.0,21,0.00,,,0.00,WeatherCatV1.21B27,2013-10-18 23:25:00,
2013-10-18 16:30:00,76.0,33.2,29.93,East,83,0.0,1.0,21,0.00,,,0.00,WeatherCatV1.21B27,2013-10-18 23:30:00,
2013-10-18 16:35:00,75.8,33.1,29.93,East,83,0.0,0.0,21,0.00,,,0.00,WeatherCatV1.21B27,2013-10-18 23:35:00,
2013-10-18 16:40:00,75.6,32.9,29.93,SE,142,1.0,1.0,21,0.00,,,0.00,WeatherCatV1.21B27,2013-10-18 23:40:00,
2013-10-18 16:45:00,75.3,33.8,29.93,SE,142,0.0,1.0,22,0.00,,,0.00,WeatherCatV1.21B27,2013-10-18 23:45:00,
2013-10-18 16:50:00,75.1,33.7,29.93,SE,142,0.0,0.0,22,0.00,,,0.00,WeatherCatV1.21B27,2013-10-18 23:50:00,
2013-10-18 16:55:00,74.8,33.4,29.93,SE,142,0.0,0.0,22,0.00,,,0.00,WeatherCatV1.21B27,2013-10-18 23:55:00,
2013-10-18 17:00:00,74.5,33.2,29.93,SSE,152,0.0,0.0,22,0.00,,,0.00,WeatherCatV1.21B27,2013-10-19 00:00:00,
2013-10-18 17:05:00,74.3,33.0,29.93,SSE,152,0.0,1.0,22,0.00,,,0.00,WeatherCatV1.21B27,2013-10-19 00:05:00,
2013-10-18 17:10:00,74.0,32.7,29.93,SSE,152,0.0,1.0,22,0.00,,,0.00,WeatherCatV1.21B27,2013-10-19 00:10:00,
2013-10-18 17:15:00,73.8,32.6,29.93,SSE,152,0.0,1.0,22,0.00,,,0.00,WeatherCatV1.21B27,2013-10-19 00:15:00,
2013-10-18 17:20:00,73.5,32.3,29.93,SSE,152,0.0,0.0,22,0.00,,,0.00,WeatherCatV1.21B27,2013-10-19 00:20:00,
2013-10-18 17:25:00,73.3,32.2,29.93,SSE,152,0.0,0.0,22,0.00,,,0.00,WeatherCatV1.21B27,2013-10-19 00:25:00,
2013-10-18 17:30:00,73.1,32.0,29.93,SSE,152,0.0,0.0,22,0.00,,,0.00,WeatherCatV1.21B27,2013-10-19 00:30:00,
2013-10-18 17:35:00,72.9,32.9,29.93,SSE,152,0.0,0.0,23,0.00,,,0.00,WeatherCatV1.21B27,2013-10-19 00:35:00,
2013-10-18 17:40:00,72.7,32.8,29.93,SSE,152,0.0,0.0,23,0.00,,,0.00,WeatherCatV1.21B27,2013-10-19 00:40:00,
2013-10-18 17:45:00,72.5,32.6,29.93,SSE,152,0.0,0.0,23,0.00,,,0.00,WeatherCatV1.21B27,2013-10-19 00:45:00,
2013-10-18 17:50:00,72.2,32.3,29.93,SSE,152,0.0,0.0,23,0.00,,,0.00,WeatherCatV1.21B27,2013-10-19 00:50:00,
2013-10-18 17:55:00,72.0,33.2,29.93,SSE,152,0.0,0.0,24,0.00,,,0.00,WeatherCatV1.21B27,2013-10-19 00:55:00,
2013-10-18 18:00:00,71.7,35.0,29.93,SSE,152,1.0,2.0,26,0.00,,,0.00,WeatherCatV1.21B27,2013-10-19 01:00:00,
2013-10-18 18:05:00,71.1,35.4,29.93,NNW,328,1.0,2.0,27,0.00,,,0.00,WeatherCatV1.21B27,2013-10-19 01:05:00,
2013-10-18 18:10:00,70.4,37.5,29.93,NNW,340,2.0,3.0,30,0.00,,,0.00,WeatherCatV1.21B27,2013-10-19 01:10:00,
2013-10-18 18:15:00,69.8,37.8,29.93,NNW,333,2.0,4.0,31,0.00,,,0.00,WeatherCatV1.21B27,2013-10-19 01:15:00,
2013-10-18 18:20:00,69.4,38.2,29.93,NNW,331,3.0,4.0,32,0.00,,,0.00,WeatherCatV1.21B27,2013-10-19 01:20:00,
2013-10-18 18:25:00,69.0,38.7,29.93,NNW,342,3.0,4.0,33,0.00,,,0.00,WeatherCatV1.21B27,2013-10-19 01:25:00,
2013-10-18 18:30:00,68.7,39.2,29.93,NNW,334,4.0,5.0,34,0.00,,,0.00,WeatherCatV1.21B27,2013-10-19 01:30:00,
2013-10-18 18:35:00,68.4,38.9,29.93,NNW,338,3.0,5.0,34,0.00,,,0.00,WeatherCatV1.21B27,2013-10-19 01:35:00,
2013-10-18 18:40:00,68.1,39.4,29.93,NNW,331,3.0,5.0,35,0.00,,,0.00,WeatherCatV1.21B27,2013-10-19 01:40:00,
2013-10-18 18:45:00,67.8,39.9,29.93,NW,320,3.0,3.0,36,0.00,,,0.00,WeatherCatV1.21B27,2013-10-19 01:45:00,
2013-10-18 18:50:00,67.7,39.8,29.93,NNW,331,3.0,3.0,36,0.00,,,0.00,WeatherCatV1.21B27,2013-10-19 01:50:00,
2013-10-18 18:55:00,67.6,39.7,29.93,NNW,339,2.0,3.0,36,0.00,,,0.00,WeatherCatV1.21B27,2013-10-19 01:55:00,
2013-10-18 19:00:00,67.5,39.6,29.94,NNW,333,1.0,2.0,36,0.00,,,0.00,WeatherCatV1.21B27,2013-10-19 02:00:00,
2013-10-18 19:05:00,67.5,39.6,29.94,NNW,333,0.0,0.0,36,0.00,,,0.00,WeatherCatV1.21B27,2013-10-19 02:05:00,
2013-10-18 19:10:00,67.5,38.9,29.94,NNW,333,0.0,0.0,35,0.00,,,0.00,WeatherCatV1.21B27,2013-10-19 02:10:00,
2013-10-18 19:15:00,67.3,38.7,29.94,NNW,333,1.0,1.0,35,0.00,,,0.00,WeatherCatV1.21B27,2013-10-19 02:15:00,
2013-10-18 19:20:00,67.0,39.2,29.94,NNW,333,1.0,2.0,36,0.00,,,0.00,WeatherCatV1.21B27,2013-10-19 02:20:00,
2013-10-18 19:25:00,66.8,39.7,29.94,NNW,333,0.0,1.0,37,0.00,,,0.00,WeatherCatV1.21B27,2013-10-19 02:25:00,
2013-10-18 19:30:00,66.5,39.4,29.94,NNW,333,1.0,2.0,37,0.00,,,0.00,WeatherCatV1.21B27,2013-10-19 02:30:00,
2013-10-18 19:35:00,66.3,39.2,29.94,NNW,333,0.0,2.0,37,0.00,,,0.00,WeatherCatV1.21B27,2013-10-19 02:35:00,
2013-10-18 19:40:00,66.2,39.2,29.94,NNW,333,0.0,0.0,37,0.00,,,0.00,WeatherCatV1.21B27,2013-10-19 02:40:00,
2013-10-18 19:45:00,66.2,38.5,29.94,NNW,333,0.0,0.0,36,0.00,,,0.00,WeatherCatV1.21B27,2013-10-19 02:45:00,
2013-10-18 19:50:00,66.1,38.4,29.94,NNW,333,0.0,0.0,36,0.00,,,0.00,WeatherCatV1.21B27,2013-10-19 02:50:00,
2013-10-18 19:55:00,66.0,37.6,29.94,NNW,333,0.0,0.0,35,0.00,,,0.00,WeatherCatV1.21B27,2013-10-19 02:55:00,
2013-10-18 20:00:00,66.0,37.6,29.94,NNW,333,0.0,0.0,35,0.00,,,0.00,WeatherCatV1.21B27,2013-10-19 03:00:00,
2013-10-18 20:05:00,66.0,37.6,29.94,NNW,333,1.0,1.0,35,0.00,,,0.00,WeatherCatV1.21B27,2013-10-19 03:05:00,
2013-10-18 20:10:00,66.1,37.7,29.94,NNW,333,2.0,2.0,35,0.00,,,0.00,WeatherCatV1.21B27,2013-10-19 03:10:00,
2013-10-18 20:15:00,66.2,37.0,29.94,NNW,333,0.0,0.0,34,0.00,,,0.00,WeatherCatV1.21B27,2013-10-19 03:15:00,
2013-10-18 20:20:00,66.2,37.0,29.94,NNW,333,0.0,0.0,34,0.00,,,0.00,WeatherCatV1.21B27,2013-10-19 03:20:00,
2013-10-18 20:25:00,66.3,36.3,29.94,NNW,333,0.0,0.0,33,0.00,,,0.00,WeatherCatV1.21B27,2013-10-19 03:25:00,
2013-10-18 20:30:00,66.2,35.5,29.94,NNW,333,0.0,0.0,32,0.00,,,0.00,WeatherCatV1.21B27,2013-10-19 03:30:00,
2013-10-18 20:35:00,66.1,35.4,29.94,NNW,333,1.0,2.0,32,0.00,,,0.00,WeatherCatV1.21B27,2013-10-19 03:35:00,
2013-10-18 20:40:00,66.2,35.5,29.94,NNW,333,2.0,2.0,32,0.00,,,0.00,WeatherCatV1.21B27,2013-10-19 03:40:00,
2013-10-18 20:45:00,66.4,34.8,29.94,North,354,0.0,3.0,31,0.00,,,0.00,WeatherCatV1.21B27,2013-10-19 03:45:00,
2013-10-18 20:50:00,66.9,35.3,29.94,North,354,0.0,0.0,31,0.00,,,0.00,WeatherCatV1.21B27,2013-10-19 03:50:00,
2013-10-18 20:55:00,67.1,34.6,29.94,North,354,0.0,0.0,30,0.00,,,0.00,WeatherCatV1.21B27,2013-10-19 03:55:00,
2013-10-18 21:00:00,67.2,33.9,29.95,North,354,0.0,0.0,29,0.00,,,0.00,WeatherCatV1.21B27,2013-10-19 04:00:00,
2013-10-18 21:01:00,67.3,34.8,29.95,North,354,0.0,0.0,30,0.00,,,0.00,WeatherCatV1.21B27,2013-10-19 04:01:00,
2013-10-18 21:03:00,67.3,34.8,29.95,North,354,0.0,0.0,30,0.00,,,0.00,WeatherCatV1.21B27,2013-10-19 04:03:00,
2013-10-18 21:08:00,67.4,33.2,29.95,North,354,0.0,2.0,28,0.00,,,0.00,WeatherCatV1.21B27,2013-10-19 04:08:00,
2013-10-18 21:13:00,67.5,32.3,29.95,North,354,0.0,1.0,27,0.00,,,0.00,WeatherCatV1.21B27,2013-10-19 04:13:00,
2013-10-18 21:18:00,67.4,32.3,29.95,North,351,0.0,2.0,27,0.00,,,0.00,WeatherCatV1.21B27,2013-10-19 04:18:00,
2013-10-18 21:23:00,67.3,31.2,29.95,North,351,0.0,0.0,26,0.00,,,0.00,WeatherCatV1.21B27,2013-10-19 04:23:00,
2013-10-18 21:28:00,67.2,32.1,29.95,North,351,0.0,0.0,27,0.00,,,0.00,WeatherCatV1.21B27,2013-10-19 04:28:00,
2013-10-18 21:33:00,67.1,32.0,29.95,North,351,0.0,0.0,27,0.00,,,0.00,WeatherCatV1.21B27,2013-10-19 04:33:00,
2013-10-18 21:38:00,66.8,31.7,29.95,North,351,0.0,0.0,27,0.00,,,0.00,WeatherCatV1.21B27,2013-10-19 04:38:00,
2013-10-18 21:43:00,66.7,31.7,29.95,North,351,0.0,0.0,27,0.00,,,0.00,WeatherCatV1.21B27,2013-10-19 04:43:00,
2013-10-18 21:48:00,66.4,32.3,29.95,North,351,0.0,0.0,28,0.00,,,0.00,WeatherCatV1.21B27,2013-10-19 04:48:00,
2013-10-18 21:53:00,66.3,32.2,29.95,North,351,0.0,0.0,28,0.00,,,0.00,WeatherCatV1.21B27,2013-10-19 04:53:00,
2013-10-18 21:58:00,66.2,32.1,29.95,North,350,3.0,3.0,28,0.00,,,0.00,WeatherCatV1.21B27,2013-10-19 04:58:00,
2013-10-18 22:03:00,66.3,30.4,29.95,NNW,336,0.0,4.0,26,0.00,,,0.00,WeatherCatV1.21B27,2013-10-19 05:03:00,
2013-10-18 22:08:00,66.6,30.6,29.95,NNW,336,2.0,2.0,26,0.00,,,0.00,WeatherCatV1.21B27,2013-10-19 05:08:00,
2013-10-18 22:13:00,66.7,29.8,29.95,NNW,346,0.0,2.0,25,0.00,,,0.00,WeatherCatV1.21B27,2013-10-19 05:13:00,
2013-10-18 22:18:00,66.9,29.9,29.95,NNW,339,1.0,3.0,25,0.00,,,0.00,WeatherCatV1.21B27,2013-10-19 05:18:00,
2013-10-18 22:23:00,67.1,31.1,29.95,NNW,339,1.0,2.0,26,0.00,,,0.00,WeatherCatV1.21B27,2013-10-19 05:23:00,
2013-10-18 22:28:00,67.2,32.1,29.95,NNW,336,1.0,3.0,27,0.00,,,0.00,WeatherCatV1.21B27,2013-10-19 05:28:00,
2013-10-18 22:33:00,67.1,32.9,29.95,NNW,335,2.0,2.0,28,0.00,,,0.00,WeatherCatV1.21B27,2013-10-19 05:33:00,
2013-10-18 22:38:00,66.9,33.6,29.95,NNW,331,2.0,2.0,29,0.00,,,0.00,WeatherCatV1.21B27,2013-10-19 05:38:00,
2013-10-18 22:43:00,66.8,33.5,29.95,NNW,334,2.0,2.0,29,0.00,,,0.00,WeatherCatV1.21B27,2013-10-19 05:43:00,
2013-10-18 22:48:00,66.7,34.3,29.95,NNW,332,2.0,3.0,30,0.00,,,0.00,WeatherCatV1.21B27,2013-10-19 05:48:00,
2013-10-18 22:53:00,66.7,34.3,29.95,NNW,329,2.0,2.0,30,0.00,,,0.00,WeatherCatV1.21B27,2013-10-19 05:53:00,
2013-10-18 22:58:00,66.6,35.0,29.95,NNW,330,2.0,3.0,31,0.00,,,0.00,WeatherCatV1.21B27,2013-10-19 05:58:00,
2013-10-18 23:03:00,66.5,34.9,29.95,NNW,331,2.0,2.0,31,0.00,,,0.00,WeatherCatV1.21B27,2013-10-19 06:03:00,
2013-10-18 23:08:00,66.5,34.9,29.95,NNW,331,1.0,2.0,31,0.00,,,0.00,WeatherCatV1.21B27,2013-10-19 06:08:00,
2013-10-18 23:13:00,66.3,34.8,29.95,NNW,331,0.0,0.0,31,0.00,,,0.00,WeatherCatV1.21B27,2013-10-19 06:13:00,
2013-10-18 23:18:00,66.2,34.7,29.95,NNW,331,1.0,2.0,31,0.00,,,0.00,WeatherCatV1.21B27,2013-10-19 06:18:00,
2013-10-18 23:23:00,66.2,34.7,29.95,NNW,331,2.0,3.0,31,0.00,,,0.00,WeatherCatV1.21B27,2013-10-19 06:23:00,
2013-10-18 23:28:00,66.2,34.7,29.95,NNW,334,2.0,3.0,31,0.00,,,0.00,WeatherCatV1.21B27,2013-10-19 06:28:00,
2013-10-18 23:33:00,66.2,34.7,29.95,NNW,332,2.0,3.0,31,0.00,,,0.00,WeatherCatV1.21B27,2013-10-19 06:33:00,
2013-10-18 23:38:00,66.3,34.8,29.95,NNW,331,1.0,3.0,31,0.00,,,0.00,WeatherCatV1.21B27,2013-10-19 06:38:00,
2013-10-18 23:43:00,66.3,33.9,29.95,NNW,331,0.0,0.0,30,0.00,,,0.00,WeatherCatV1.21B27,2013-10-19 06:43:00,
2013-10-18 23:48:00,66.2,33.8,29.94,NNW,331,0.0,0.0,30,0.00,,,0.00,WeatherCatV1.21B27,2013-10-19 06:48:00,
2013-10-18 23:53:00,66.1,33.8,29.94,NNW,331,0.0,0.0,30,0.00,,,0.00,WeatherCatV1.21B27,2013-10-19 06:53:00,
2013-10-18 23:58:00,66.1,32.9,29.94,NNW,331,0.0,0.0,29,0.00,,,0.00,WeatherCatV1.21B27,2013-10-19 06:58:00,